Theta_e
286 287 286 284 283 283 281 281 278 279 279 281 282 283 283 284 286 286 287 288 288 289 291 292 293 294 294 293 294 293 293 293 293 294 296 296 298 299 301 302 304 309 311 327
284 287 286 283 284 284 283 282 281 281 280 284 285 285 284 284 285 285 286 287 289 290 292 292 293 294 294 293 293 293 293 293 294 294 295 295 296 299 301 302 303 309 314 324
279 285 285 279 281 281 281 282 280 275 278 283 283 285 284 283 285 285 286 288 288 290 291 292 293 294 295 294 294 294 294 294 294 294 293 293 295 299 301 301 303 309 318 321
280 282 275 283 288 286 283 283 282 282 282 284 284 285 285 285 284 286 287 287 288 289 290 292 293 293 296 294 293 294 293 294 294 294 293 292 292 296 301 307 304 310 319 314
279 279 282 283 285 286 285 282 286 283 284 285 286 285 284 286 287 288 287 288 288 290 291 291 292 293 294 294 292 293 293 293 294 294 292 290 289 294 301 304 303 302 305 306
279 275 276 281 290 292 289 277 287 285 283 283 283 279 280 286 288 289 288 288 288 290 291 291 292 292 292 292 291 290 292 293 295 294 292 289 288 291 300 299 298 298 298 299
275 274 279 288 290 290 277 277 285 286 285 282 280 282 286 288 289 289 288 289 291 290 289 290 291 290 290 290 290 293 292 293 294 294 293 291 289 290 292 295 294 294 293 294
274 275 274 290 287 278 280 284 286 286 287 287 286 288 288 288 288 288 288 289 290 288 289 290 291 289 288 289 293 294 293 292 293 295 294 293 289 288 288 288 288 286 286 288
276 275 284 288 285 286 288 287 287 286 289 289 288 287 287 287 288 288 288 288 289 287 288 290 290 289 288 291 293 292 291 291 292 294 294 293 290 286 286 287 286 285 285 285
282 285 287 289 290 291 292 290 290 293 291 290 287 287 287 287 287 287 288 288 288 287 287 288 290 290 290 292 293 291 289 290 291 291 295 293 291 290 288 286 286 285 285 285
283 288 289 290 291 292 293 294 293 293 292 290 289 287 286 287 288 288 287 288 288 287 287 288 290 290 291 292 292 290 289 290 289 290 291 293 291 290 290 290 290 288 288 288
279 287 286 287 292 293 293 293 293 292 290 290 290 289 289 288 288 288 287 287 288 288 288 289 290 290 291 292 291 289 288 289 289 289 289 290 290 291 292 291 291 290 290 290
287 291 291 292 294 295 293 293 294 292 291 290 291 290 290 289 289 291 289 288 289 289 289 289 289 289 291 292 290 289 287 288 287 288 288 288 288 288 288 290 292 291 290 290
293 293 290 293 291 295 295 296 297 294 292 292 292 291 291 290 290 290 290 290 290 290 290 290 290 289 291 291 290 288 287 290 286 286 287 287 287 288 290 288 286 286 289 288
294 295 295 297 294 294 294 293 292 291 291 291 291 291 292 291 289 290 291 291 291 291 291 291 290 289 291 291 289 287 287 287 286 286 286 287 286 286 286 287 287 285 285 287
298 297 296 294 295 294 292 291 290 290 291 291 291 292 293 292 292 291 291 292 290 289 290 290 290 290 291 289 287 287 286 289 287 284 284 285 285 284 284 284 284 286 284 282
293 293 296 293 295 293 292 292 292 292 293 292 293 293 294 293 292 292 292 292 292 292 291 290 290 291 292 290 287 286 285 285 284 284 283 283 283 282 282 282 282 282 282 283
297 298 298 297 297 297 296 295 294 294 293 295 296 297 296 293 292 292 293 293 292 292 292 292 291 291 292 292 287 286 284 284 284 283 283 283 282 282 281 281 281 281 282 282
300 300 300 301 300 300 300 300 297 295 295 296 296 296 297 296 294 293 296 295 293 291 294 294 294 293 292 292 289 286 285 284 283 282 283 283 282 281 281 280 280 280 281 281
299 299 300 301 301 303 302 300 299 298 298 298 297 296 294 296 297 297 298 296 297 296 295 292 292 293 293 293 290 287 285 284 283 282 282 282 283 282 282 282 281 281 280 280
299 300 299 299 300 299 300 300 299 298 299 299 297 297 296 296 297 295 297 293 296 296 295 293 292 293 293 291 292 288 289 288 284 282 281 280 281 287 282 281 281 282 280 280
298 297 297 297 297 298 299 299 298 299 299 298 299 299 297 295 295 295 296 295 296 291 295 293 292 291 292 287 292 290 291 288 284 282 280 280 281 285 283 280 280 281 279 279
295 297 297 297 297 298 300 300 298 299 298 297 298 295 294 293 293 292 293 296 296 294 294 295 291 287 286 291 292 292 291 286 283 282 281 280 283 285 279 279 279 279 278 278
295 296 295 297 295 295 294 297 298 298 298 298 298 298 295 294 295 294 295 293 288 292 295 294 290 286 285 292 291 292 289 283 282 281 281 282 285 285 278 277 278 277 277 277
295 294 294 293 291 291 292 295 295 296 298 297 296 298 297 295 295 296 296 296 289 291 295 286 285 285 290 291 292 290 284 283 282 281 281 279 281 278 278 277 277 276 276 276
293 293 293 292 293 292 292 292 293 294 295 292 295 296 297 297 295 294 294 294 296 292 294 288 288 289 293 289 287 284 282 282 281 280 279 278 278 278 277 277 276 276 276 276
291 291 292 292 292 292 292 292 292 292 293 293 293 295 295 294 293 291 290 296 295 294 292 290 291 292 289 286 285 283 282 281 281 280 280 280 277 276 276 276 276 275 276 276
Wind_Speed
14 17 20 16 15 15 10 2 5 4 5 3 4 6 5 5 9 11 12 13 13 15 16 17 17 18 20 20 20 21 18 19 20 21 20 20 21 24 21 23 21 20 20 16
12 12 17 18 11 10 10 6 7 6 4 1 4 5 6 8 11 11 11 12 13 14 16 17 18 18 21 21 21 22 19 19 22 20 20 20 22 23 23 22 23 20 22 17
5 13 4 11 4 7 5 5 2 3 2 4 5 7 6 6 7 9 11 11 12 13 13 15 15 16 17 19 18 18 19 20 21 22 22 22 23 24 21 22 19 20 20 16
5 1 3 0 5 8 10 3 3 1 3 3 4 6 6 5 5 8 10 10 12 11 12 14 14 15 15 15 17 18 19 20 22 22 21 23 24 25 24 16 16 14 12 10
5 5 6 6 5 5 3 3 3 3 3 4 5 6 5 4 4 7 8 10 8 9 10 12 12 13 13 15 15 16 20 21 20 22 22 24 25 27 19 11 8 8 5 6
3 5 5 4 2 2 3 2 6 3 2 2 3 6 5 6 7 8 8 7 8 10 9 9 12 12 12 13 12 14 16 16 18 21 21 23 23 25 15 14 15 12 14 14
3 4 1 2 3 2 5 5 4 4 5 2 3 5 6 7 7 5 6 9 9 9 8 10 10 10 12 13 14 14 13 14 14 20 20 23 22 19 21 18 17 17 14 18
3 4 1 4 2 7 6 2 4 3 4 5 5 7 5 7 7 8 9 9 9 7 8 9 10 8 11 12 14 13 11 13 14 13 16 16 21 19 19 17 16 18 13 13
5 6 5 3 4 2 4 4 2 3 4 4 4 3 4 5 6 6 7 7 6 6 9 10 10 7 9 13 12 12 12 13 13 10 12 15 14 16 12 13 12 13 9 9
4 2 3 3 2 3 4 5 2 5 4 4 3 2 4 4 5 5 6 6 6 8 8 9 11 11 10 12 13 12 13 12 11 10 7 10 9 9 9 9 9 8 7 7
3 2 2 1 4 4 5 4 5 4 5 4 4 2 3 3 3 4 4 5 5 6 7 8 10 11 11 11 11 11 11 12 12 9 7 4 6 8 7 10 11 8 8 9
6 6 5 4 3 4 6 6 7 5 4 3 4 4 2 3 3 3 4 5 6 7 7 8 9 10 11 11 10 10 10 9 9 9 9 6 3 3 9 11 15 15 16 11
4 5 4 4 3 3 6 7 5 6 5 5 4 3 2 2 3 4 3 4 5 6 6 7 7 8 10 10 8 10 9 10 8 10 9 9 8 5 4 5 11 14 15 15
4 4 1 2 3 5 5 5 4 6 6 5 5 3 3 4 3 4 5 4 5 4 6 6 6 7 8 8 7 7 7 12 6 6 7 8 9 7 6 6 8 9 11 14
4 5 5 2 4 3 1 3 5 6 6 5 5 5 5 6 6 6 5 5 4 5 5 6 6 7 8 8 6 7 6 5 5 5 6 8 7 7 6 6 6 5 5 7
5 5 5 6 7 5 6 5 5 7 6 6 7 7 8 6 6 6 6 5 3 5 5 4 5 6 6 6 6 5 5 12 8 4 5 6 6 5 6 6 6 5 6 5
3 3 2 3 4 4 9 8 8 8 8 7 9 6 6 6 5 6 7 6 6 6 6 4 4 4 5 5 5 4 4 5 7 4 4 4 4 5 5 5 5 5 6 6
5 5 6 7 6 5 4 8 7 7 8 10 7 6 6 6 7 7 7 5 6 6 7 7 6 3 2 3 3 3 3 4 4 4 4 5 4 4 4 4 4 5 5 5
6 7 6 6 5 4 1 1 6 8 7 6 6 7 7 7 6 7 6 5 4 5 10 6 8 7 3 1 2 2 3 4 4 4 4 5 4 4 4 4 4 5 6 6
2 3 2 3 3 1 1 3 2 4 6 5 6 6 7 8 7 6 5 7 6 6 5 3 6 5 4 1 2 1 2 2 4 4 4 4 5 3 5 4 3 4 4 4
3 3 3 1 1 1 2 2 3 5 7 5 5 7 8 8 5 6 5 4 8 5 6 6 6 5 4 4 2 2 3 3 4 4 4 4 6 5 7 7 7 8 8 8
2 3 4 3 4 5 6 6 2 5 6 6 6 6 5 6 5 5 5 6 5 6 5 3 4 4 5 6 2 2 2 1 2 3 4 4 5 5 7 6 6 8 7 7
2 3 4 6 5 6 5 5 5 6 5 4 5 5 4 4 3 2 5 4 4 5 3 4 5 5 5 3 2 3 2 1 3 4 4 4 4 4 4 5 6 7 7 7
3 4 5 5 5 4 7 6 4 5 4 4 5 4 3 3 4 2 5 7 6 5 4 4 3 6 5 2 2 1 2 2 3 4 4 6 3 4 4 5 7 7 6 8
6 5 2 5 5 4 5 4 3 3 3 4 6 5 5 1 3 4 4 5 5 2 2 2 6 5 2 2 2 3 3 2 4 4 4 4 4 5 5 5 6 7 7 7
6 5 3 3 1 3 3 0 1 1 2 3 3 4 4 4 4 4 4 4 3 3 3 3 4 3 2 4 4 4 2 3 4 4 4 4 4 5 5 6 6 7 7 7
4 3 2 2 1 3 1 0 1 1 1 3 0 4 3 3 4 4 5 3 3 3 3 3 2 3 4 4 4 3 1 3 4 4 4 4 4 5 5 6 6 7 7 7
Wind_Direction
77 87 83 78 58 49 69 43 81 171 134 261 322 320 305 317 354 356 352 351 352 349 347 344 337 339 345 343 338 338 328 325 324 319 316 311 305 299 290 286 278 271 278 236
71 85 87 79 52 50 50 49 87 96 123 72 323 329 349 340 346 346 343 343 342 342 345 340 338 332 343 343 339 341 334 330 333 329 322 320 311 301 291 281 276 266 268 211
148 154 136 53 31 79 77 35 69 67 286 337 323 337 335 309 322 321 319 327 331 331 332 330 329 326 337 338 338 335 338 336 335 334 331 328 318 309 294 276 262 257 256 197
111 215 59 63 96 113 111 130 130 177 266 303 302 301 293 263 285 303 315 321 328 321 321 323 319 317 323 329 337 338 341 339 344 340 337 334 330 323 312 267 248 245 216 162
111 64 115 130 159 172 229 178 164 203 285 316 331 340 318 289 297 297 295 300 295 297 307 312 315 316 320 325 326 334 344 345 343 348 346 343 339 336 345 6 36 55 76 139
101 111 192 196 208 142 126 260 180 172 260 283 6 17 273 298 317 304 302 300 300 314 322 320 323 320 320 321 317 335 329 339 343 351 357 351 348 352 4 24 33 47 64 75
76 103 11 156 301 132 116 222 170 184 229 228 222 212 258 311 308 300 297 309 323 328 321 318 317 318 331 328 329 314 316 327 341 -0 4 6 357 1 8 26 41 35 36 56
73 92 91 24 59 141 205 178 166 193 222 239 245 289 309 317 322 325 324 325 324 324 325 323 327 332 328 334 324 323 324 331 352 6 7 5 3 4 16 15 23 44 0 11
136 198 232 350 122 151 151 131 194 213 240 225 240 265 313 300 314 312 321 323 318 332 337 336 328 332 335 324 330 337 344 345 347 5 15 7 7 360 8 13 20 24 357 15
71 297 152 145 105 155 179 204 223 247 254 180 215 267 298 294 317 332 328 328 319 345 338 334 333 339 343 339 342 349 348 349 351 354 17 21 11 12 13 13 20 26 11 6
42 91 100 259 224 206 227 239 260 262 155 171 169 227 221 281 320 328 328 331 337 342 333 333 335 337 340 348 348 352 350 355 0 2 358 29 33 22 27 32 30 28 18 18
203 194 160 223 219 198 212 229 220 173 170 172 158 198 212 302 281 283 319 330 345 336 339 336 338 338 344 348 353 357 356 357 1 3 6 9 356 24 30 35 31 24 25 30
160 181 189 234 244 225 196 219 207 174 174 170 201 196 195 225 267 271 298 322 336 327 331 337 337 337 341 341 350 4 352 358 356 6 4 0 10 15 27 9 30 30 24 25
136 136 301 228 235 221 226 223 191 169 177 181 208 200 195 216 255 265 276 263 285 328 339 333 336 337 336 344 348 2 352 0 356 355 360 2 4 12 24 34 25 13 4 13
194 211 205 215 299 254 188 137 138 170 187 207 229 228 208 234 246 250 256 254 276 309 335 343 344 341 342 354 358 4 359 2 354 359 4 12 10 9 11 6 357 2 349 2
311 253 258 241 259 232 171 172 178 205 206 222 221 222 221 227 249 248 254 247 249 280 288 316 340 332 346 5 6 6 359 6 10 5 6 8 6 18 11 2 359 348 356 345
315 314 356 292 268 193 203 198 196 197 208 218 236 244 220 213 244 261 264 258 240 246 242 244 267 321 355 5 14 7 357 355 349 350 356 345 4 0 353 357 356 342 342 341
237 259 259 243 263 255 227 215 211 210 219 226 234 227 226 218 228 250 259 272 280 274 256 234 226 239 20 2 15 11 15 359 344 344 332 334 338 356 350 348 344 344 332 315
248 251 246 263 286 190 232 238 215 220 239 248 258 250 239 236 236 237 235 241 240 257 270 224 210 202 179 355 63 13 4 8 358 334 322 320 324 319 331 334 328 320 318 325
343 291 218 241 228 168 230 284 287 247 251 255 264 274 263 256 240 243 234 237 245 234 266 224 202 226 208 174 76 307 286 352 352 345 348 343 336 337 352 342 319 337 319 313
343 341 65 96 227 124 245 265 251 273 289 308 283 273 257 260 256 258 254 258 271 275 259 221 199 216 185 195 208 266 294 1 359 352 344 338 333 339 357 342 336 342 339 336
283 298 299 287 301 280 269 268 247 269 282 304 312 310 307 297 284 265 243 229 273 252 258 261 253 228 187 188 233 280 281 349 339 342 340 333 331 334 347 331 331 332 328 321
271 272 296 299 287 271 288 277 244 225 252 276 301 313 303 277 270 266 295 283 271 292 284 258 241 184 159 204 213 275 276 43 338 333 326 313 308 324 324 315 320 318 315 316
305 304 288 302 300 291 284 281 318 240 238 280 283 267 272 332 328 238 249 279 269 268 276 273 172 148 183 175 214 244 72 39 334 325 318 313 295 340 320 311 317 314 308 311
275 278 269 307 324 288 261 259 296 234 246 316 332 317 309 135 200 286 299 296 301 262 22 89 127 126 139 193 96 88 87 6 332 329 321 316 317 329 311 307 308 307 308 305
270 261 279 258 274 289 277 357 288 348 11 332 311 333 348 6 331 329 323 303 315 9 82 125 134 151 143 97 99 103 71 355 344 330 315 305 317 316 308 310 311 308 306 304
30 51 49 38 291 289 197 89 157 292 257 210 0 3 13 9 334 343 355 10 20 40 76 118 144 136 119 114 115 116 42 335 325 316 313 298 305 306 307 308 306 303 302 303